GFSNIL_sfc_thetae_282.txt.gz
Theta_e
298 297 297 298 298 298 298 298 299 299 299 298 298 297 297 295 294 294 293 292 291 291
294 294 295 295 296 296 296 296 296 296 295 294 293 292 291 290 289 289 288 288 288 287
291 291 291 292 291 291 292 292 292 291 290 290 289 288 288 287 287 286 286 286 285 285
289 289 289 288 288 288 288 288 288 288 287 287 287 286 285 285 284 283 283 283 283 282
287 287 287 286 286 286 286 287 286 286 286 285 285 285 283 282 282 282 281 281 281 281
285 285 285 285 285 285 284 284 285 284 284 284 284 283 283 282 281 280 280 280 280 280
284 284 284 284 284 284 283 283 283 283 283 283 283 283 282 281 280 279 279 280 280 280
284 284 284 284 284 283 283 283 283 282 283 282 282 282 281 281 280 279 279 279 279 279
283 283 283 283 282 282 282 282 281 281 281 281 283 284 284 281 279 279 279 278 278 279
282 282 282 281 281 281 280 280 280 281 281 281 282 285 283 281 278 278 277 277 278 278
282 281 281 280 280 280 280 279 279 280 280 281 282 285 283 280 278 277 277 277 277 277
281 281 281 280 279 279 279 279 279 280 280 280 281 284 283 279 277 277 277 277 277 277
282 282 281 280 279 279 278 279 280 280 279 278 280 285 283 280 278 276 276 277 278 280
282 282 281 280 280 279 279 279 278 279 278 279 279 281 284 282 279 277 276 276 275 277

GFSNIL_sfc_thetae_285.txt.gz
Theta_e
297 296 296 296 297 297 297 297 298 297 297 296 297 296 295 294 293 292 291 290 290 289
293 294 294 294 294 293 294 294 293 293 292 292 292 292 291 289 289 288 288 287 287 286
289 290 291 291 290 290 291 291 290 289 289 288 288 288 288 287 287 286 285 285 284 284
287 287 287 287 287 287 288 288 287 287 287 286 286 286 285 284 284 283 283 283 282 282
286 285 285 285 285 286 285 286 285 285 284 284 283 283 283 282 282 281 281 280 280 280
283 283 283 283 283 284 284 283 284 284 283 282 282 281 281 281 280 279 280 280 279 279
282 282 282 282 282 282 282 282 282 282 282 281 281 281 280 280 279 279 279 280 280 279
282 282 282 282 282 282 282 281 281 281 281 280 281 281 280 280 279 278 278 279 280 280
282 282 282 281 281 281 281 281 281 280 280 281 282 283 283 280 279 279 278 278 278 278
282 281 281 281 281 280 280 280 280 280 280 280 281 284 283 281 279 278 277 278 278 278
282 281 281 280 280 279 279 279 279 279 280 280 282 283 282 280 278 277 277 277 277 277
281 281 280 280 279 279 279 279 279 280 280 280 280 283 282 279 278 277 276 277 277 277
282 281 280 280 279 279 279 280 280 280 279 278 280 284 282 279 278 276 277 277 278 280
283 282 281 280 279 279 279 279 278 279 278 279 279 281 284 282 278 278 276 276 275 277

GFSNIL_sfc_thetae_291.txt.gz
Theta_e
296 295 295 295 295 294 294 294 296 297 297 298 298 297 296 295 293 292 291 290 289 288
291 292 293 294 293 293 294 293 293 293 293 293 293 293 292 290 289 288 288 287 287 286
288 289 290 291 290 290 291 291 290 290 290 289 289 289 288 287 287 286 286 285 285 284
286 286 287 287 287 288 288 288 287 287 286 286 286 286 286 285 285 284 283 284 283 282
285 285 285 284 285 286 285 285 285 285 284 284 284 284 283 283 283 282 282 281 281 281
283 283 283 283 283 283 283 283 283 283 282 282 282 282 282 282 281 281 281 281 280 280
282 282 282 282 283 283 282 282 281 281 281 281 281 281 281 281 281 281 281 281 280 280
282 282 282 282 282 282 282 281 282 281 281 281 281 281 281 281 281 280 280 281 282 282
282 282 282 282 282 282 281 281 281 281 281 281 282 283 283 281 280 280 279 279 280 280
282 282 281 281 281 281 280 281 280 281 281 281 283 284 283 282 280 279 279 279 278 278
282 281 281 281 281 281 281 280 280 280 281 281 282 284 283 281 279 279 278 278 278 277
282 281 281 281 280 280 281 280 280 281 280 281 281 284 283 280 279 278 277 278 278 278
282 282 281 281 280 281 281 281 281 281 280 279 281 284 283 280 279 277 277 278 278 279
282 282 281 281 280 280 280 281 280 280 280 280 280 282 283 282 279 279 277 278 278 280

GFSNIL_sfc_thetae_297.txt.gz
Theta_e
295 294 294 294 294 294 293 294 295 296 297 298 298 298 297 296 294 294 294 294 295 295
294 294 292 293 293 292 293 293 292 293 293 293 293 293 292 291 290 290 290 291 292 292
293 293 292 292 291 291 291 291 291 291 291 290 290 290 290 289 289 288 288 289 289 290
295 295 294 292 290 290 290 290 289 289 289 288 288 288 288 288 289 288 288 288 288 287
293 293 292 291 291 288 288 289 288 287 287 287 287 288 288 287 287 286 285 286 285 285
291 290 290 290 290 290 290 289 290 289 288 288 288 287 287 286 286 285 285 285 285 285
289 289 289 289 289 289 289 288 287 287 287 287 286 286 286 285 284 284 284 284 284 284
288 289 288 288 288 287 287 287 287 286 286 286 286 285 285 285 285 284 284 284 283 283
288 288 288 287 287 286 286 286 287 286 286 285 285 285 287 286 284 284 283 282 283 284
288 287 287 287 286 286 285 285 285 285 285 285 285 286 286 286 284 283 283 282 282 281
288 287 286 286 285 285 285 285 284 284 285 284 284 285 284 285 283 282 282 282 281 281
288 286 286 285 285 285 285 285 284 284 284 284 283 284 284 283 281 280 280 280 281 280
288 287 286 286 285 285 286 284 283 283 284 284 283 284 283 282 281 279 279 280 280 281
287 286 287 286 285 285 284 283 283 282 283 283 284 283 284 283 281 281 280 280 279 281